Regional Weather Roundup
Issued by NWS

Home | Current Version | Previous Version | Graphics & Text | Print | Product List | Glossary On
Versions: 1 2 3 4 5 6 7 8 9 10 11 12 13 14 15 16 17 18 19 20 21 22 23 24 25 26 27
000
ASUS45 KCYS 171310
RWRWY

WYOMING REGIONAL WEATHER ROUNDUP
NATIONAL WEATHER SERVICE CHEYENNE WY
700 AM MDT THU APR 17 2014

NOTE:  "FAIR" INDICATES FEW OR NO CLOUDS BELOW 12,000 FEET
WITH NO SIGNIFICANT WEATHER AND/OR OBSTRUCTIONS TO VISIBILITY.

WYZ001-171400-
YELLOWSTONE NATIONAL PARK

CITY           SKY/WX    TMP DP  RH WIND       PRES   REMARKS
LK YELLOWSTONE   N/A     14   9  80 CALM      30.04
W YELLOWSTONE  NOT AVBL

$$
WYZ002>013-054>058-071-098>099-171400-
NORTHERN WYOMING

CITY           SKY/WX    TMP DP  RH WIND       PRES   REMARKS
JACKSON        CLEAR     18  16  93 N3        30.05S
CODY           PTCLDY    28  25  86 SW3       29.99R
GREYBULL       PTCLDY    31  29  92 CALM      30.01R
WORLAND        PTCLDY    32  27  81 S6        30.00S WCI  26
SHERIDAN       CLOUDY    33  31  92 S3        30.02S
BUFFALO        CLOUDY    29  25  85 NW3       30.02R
GILLETTE       CLOUDY    33  31  92 SE9       30.04R WCI  25
HULETT         CLOUDY    32  30  93 SW5       30.08  WCI  27
NEWCASTLE      PTSUNNY   32  30  93 SE7       30.11  WCI  26

$$
WYZ014>020-022>026-101>103-171400-
CENTRAL WYOMING

CITY           SKY/WX    TMP DP  RH WIND       PRES   REMARKS
BIG PINEY      CLOUDY    19  13  77 NE6       30.08R WCI  11
PINEDALE       SUNNY     19  18  93 W5        30.09R WCI  13
DUBOIS         FAIR      25  12  58 NW14      30.02R WCI  13
LANDER         PTCLDY    27  24  89 CALM      30.04S
RIVERTON       PTCLDY    28  25  88 NW9       30.03F WCI  19
CASPER         FOG       29  28  96 CALM      30.05S VSB<1/4
DOUGLAS        MOCLDY    32  30  92 S7        30.07R FOG     WCI  26

$$
WYZ021-027>030-104>119-171400-
SOUTHERN WYOMING

CITY           SKY/WX    TMP DP  RH WIND       PRES   REMARKS
EVANSTON       CLEAR     28  12  51 S7        30.07S WCI  21
FORT BRIDGER   FAIR      33  10  38 SW9       30.10S WCI  26
ROCK SPRINGS   MOCLDY    29  11  47 S3        30.07R
DIXON          FAIR      26  19  77 E3        30.13R
RAWLINS        PTCLDY    20  17  88 CALM      30.08R
SARATOGA       FAIR      21  19  93 CALM      30.09R
LARAMIE        CLEAR     23  19  85 CALM      30.05R
CHEYENNE       FOG       29  29 100 SW10      30.07R VSB 1/2 WCI  20
TORRINGTON     CLOUDY    32  30  92 SE9       30.12R WCI  24
PINE BLUFFS    FOG       32  32 100 S12       30.10R VSB 3/4 WCI  23

$$



USA.gov is the U.S. government's official web portal to all federal, state and local government web resources and services.